星链-2337 (STARLINK-2337 )

导读 | 星芒AI

STARLINK-2337 是 SpaceX Starlink 项目中的一颗低轨通信卫星,属于第 23 批发射的星链卫星群。该卫星于 2023 年发射,部署在约 550 公里的轨道高度,旨在为全球用户提供高速互联网服务。作为星链网络的一部分,STARLINK-2337 采用先进通信技术,支持宽带数据传输,并具备自动避障功能以确保轨道安全。该卫星的运行有助于提升偏远地区的网络覆盖,推动全球互联网普及。

基本信息
目录编号:
47880
目录名称:
STARLINK-2337
国际标识:
2021-021W
轨道中心:
EARTH
卫星名称:
星链-2337
卫星全名:
星链-2337 (STARLINK-2337 )
卫星状态:
已陨落 最后检测时间 2025-02-21
发射日期:
2021-03-14 UTC
国别 :
美国 (US)
星等 :
--
轨道信息
数据来源 国际轨道数据
星历时间: 2025-02-20T19:09:04+0800
轨道信息已过期251天
半长轴: 6519.997km
偏心率: 0.0009381
轨道倾角: 53.021°
近地点辐角 341.009°
升交点赤经 150.504°
平近点角 77.513°
近地点: 135.745km
远地点: 147.979km
周期: 87.323分钟
每日圈数: 16.490419
详细信息
固有亮度:
5
最大亮度:
2.5
卫星平台:
Starlink V1.0
覆盖范围:
全球
运营商:
太空探索技术公司
运营商所在国:
美国
制造商(研发单位):
太空探索技术公司
制造商所在国:
美国
使用方式:
暂无
卫星简介
星链(Starlink)计划是由太空探索技术公司(SpaceX)提出的一个巨型低轨卫星互联网星座项目,计划在2019年至2024年间在太空搭建由约1.2万颗卫星组成的“星链”网络,其中1584颗将部署在地球上空550千米处的近地轨道,并从2020年开始工作。该卫星仍在工作。